RH
34 33 31 30 32 36 35 36 38 35 31 28 27 24 23 28 23 23 24 21 19 18 16 19 20 16 17 27 84 81 58 52 36 22 14 10 7 4 5 8 13 11 33 36 19 24 29
43 43 43 46 46 44 42 41 42 42 41 37 34 31 27 35 33 29 26 27 22 20 18 20 22 18 17 40 74 73 52 37 19 12 8 6 4 5 8 11 14 24 63 64 32 23 27
52 52 52 50 50 52 54 57 55 49 46 46 44 38 33 30 44 38 35 28 28 23 22 23 29 19 28 95 62 57 56 28 14 9 8 7 9 15 11 14 16 22 58 92 51 29 27
59 61 59 58 56 56 49 54 63 69 64 57 50 44 39 36 35 46 42 39 31 31 29 32 32 23 58 69 53 71 44 18 10 8 12 16 25 18 15 26 37 38 40 76 74 54 25
73 71 68 67 61 57 57 56 66 64 68 68 64 54 47 42 39 37 48 48 46 40 36 35 31 24 74 68 70 47 19 13 11 14 18 37 32 19 89 100 100 93 64 61 67 52 43
85 76 76 68 64 63 58 55 57 54 53 51 56 74 64 48 43 36 34 40 51 42 34 26 22 70 97 81 33 23 22 16 16 18 27 48 33 24 85 89 92 100 99 96 84 62 42
83 79 66 58 42 33 28 23 24 26 20 24 32 43 62 62 55 47 32 27 36 32 24 40 37 100 95 56 30 25 27 22 21 22 39 28 30 48 63 76 96 100 100 90 78 63 34
78 63 48 29 16 13 10 12 17 21 28 36 27 18 23 46 53 48 38 28 26 24 28 40 80 99 76 40 26 34 44 33 22 27 26 46 64 68 80 100 100 100 98 99 100 76 32
64 45 23 16 11 13 42 59 57 49 55 54 51 36 16 13 26 43 43 32 26 21 28 59 100 96 58 32 38 56 88 62 72 68 80 78 75 95 100 100 92 92 93 100 98 75 52
52 31 19 12 30 80 97 97 90 82 87 85 60 30 23 17 12 27 40 35 30 25 23 84 99 83 42 45 63 80 75 79 100 94 97 79 96 100 100 100 90 72 91 100 100 74 52
40 26 13 43 92 100 97 71 95 98 100 100 69 50 41 34 30 14 20 35 30 26 34 100 98 67 40 57 71 61 72 66 65 64 72 74 94 79 100 100 84 71 100 100 100 100 46
31 15 43 98 100 99 98 95 93 86 98 99 94 74 60 46 36 14 12 30 28 24 94 100 71 50 34 46 54 61 60 53 51 59 74 75 69 63 98 99 81 98 99 100 99 100 82
18 29 99 100 95 100 100 90 91 99 97 85 67 66 83 86 41 19 14 24 24 34 100 97 45 37 37 32 33 42 47 55 62 61 51 63 100 84 81 99 100 75 86 98 89 95 94
21 99 100 97 94 92 88 98 100 100 100 100 60 68 77 96 33 21 18 22 40 100 99 50 50 38 50 54 31 35 41 61 67 66 53 94 100 96 99 100 91 92 94 69 69 100 97
98 100 98 96 99 88 93 100 100 100 92 86 90 77 89 42 19 16 22 44 100 100 48 48 48 43 43 70 72 42 50 90 86 54 90 100 100 100 100 98 87 67 69 85 88 92 95
100 100 92 95 88 90 100 100 100 95 98 70 98 25 18 14 20 40 95 100 100 48 38 52 63 52 50 70 70 59 60 89 100 100 100 96 100 98 100 100 96 89 89 93 90 80 76
100 100 72 68 64 99 100 100 100 100 89 45 28 13 14 23 93 100 100 100 58 31 41 58 80 68 54 66 63 96 97 97 90 83 85 98 90 95 100 93 88 90 98 98 99 92 78
100 99 57 52 75 98 100 100 100 90 80 96 37 49 58 52 91 100 100 49 32 35 44 71 79 91 73 83 90 73 67 81 69 56 71 87 58 53 51 45 54 56 57 64 82 94 96
99 52 39 55 82 100 99 100 100 78 80 100 54 72 99 100 100 100 86 40 41 34 45 82 89 76 69 76 73 68 64 68 65 65 68 58 54 43 42 42 37 40 40 38 41 44 72
40 21 44 58 82 100 90 100 60 50 61 85 100 100 100 100 93 46 39 38 33 31 55 72 86 61 67 56 53 47 49 69 63 53 57 60 62 61 53 42 35 34 31 32 32 32 34
12 28 38 63 76 100 68 83 89 100 100 100 100 100 100 98 39 42 35 38 30 35 53 51 73 49 51 56 43 40 45 55 49 43 40 36 35 48 56 56 49 47 43 31 27 28 24
12 19 30 55 68 87 82 68 95 94 96 95 88 98 100 32 31 34 39 43 26 39 43 40 40 47 38 42 44 31 22 19 18 18 18 18 18 27 45 48 51 50 50 54 53 43 30
11 29 38 47 53 86 87 88 88 83 95 85 80 92 53 24 28 26 29 24 22 36 44 39 36 32 30 34 34 26 22 21 18 25 29 24 20 24 23 33 36 37 36 38 40 38 40
19 28 34 46 71 82 79 82 95 86 82 98 88 74 18 18 23 17 19 18 19 25 38 38 36 33 29 27 25 23 22 21 19 16 26 29 26 25 27 24 24 30 33 34 33 31 31
36 43 50 50 60 61 74 87 69 90 95 92 66 12 13 11 12 15 14 14 14 15 20 30 28 29 31 30 26 22 18 18 19 16 21 20 23 26 27 24 25 30 28 30 25 25 25
25 33 39 48 55 59 63 78 80 94 97 66 14 7 8 10 12 12 11 10 12 13 15 15 16 16 19 18 17 15 18 14 14 14 18 17 17 17 18 18 18 18 17 16 14 15 11
25 27 35 50 58 66 72 87 94 95 55 15 7 6 7 10 10 8 8 8 9 10 11 13 14 16 16 15 15 14 12 13 11 11 10 8 9 8 7 7 8 7 6 5 7 8 6
24 30 42 47 56 64 77 90 93 78 26 7 6 5 5 6 7 6 5 5 6 6 6 7 9 9 9 9 8 7 7 6 5 5 5 5 4 4 4 4 5 6 6 6 6 5 5
29 31 40 48 58 72 79 79 77 43 9 5 5 4 4 5 5 5 5 5 5 6 7 6 6 5 6 5 5 5 5 5 5 6 6 5 6 6 6 5 6 5 5 6 7 7 8
Wind_Speed
49 49 50 51 51 53 52 52 52 53 54 54 54 53 51 49 48 47 45 44 42 39 40 42 43 45 51 53 54 51 50 45 45 45 47 51 56 60 60 53 49 51 48 51 51 53 47
53 54 55 55 55 56 58 59 57 54 54 56 56 54 53 52 50 48 47 45 44 42 40 44 44 47 51 53 56 55 53 47 47 48 51 55 57 57 49 42 44 45 50 50 50 51 50
55 57 57 58 59 60 61 59 59 57 56 54 56 56 54 54 52 50 47 45 44 44 42 44 46 49 51 54 54 55 57 53 51 50 50 52 51 44 38 32 33 36 45 46 49 48 50
57 59 60 62 64 65 66 66 61 52 53 54 56 57 55 53 54 51 49 47 44 44 46 47 48 49 52 54 60 61 57 52 51 49 46 45 40 31 19 12 9 14 32 41 41 43 48
60 61 62 62 64 68 67 65 60 58 53 59 60 59 58 57 53 54 51 49 47 44 45 48 47 50 51 52 54 50 46 48 50 48 40 33 27 16 18 15 10 17 19 27 42 44 44
63 63 64 66 65 65 64 65 66 64 60 59 62 64 63 61 56 53 50 51 46 44 43 44 41 45 42 44 40 43 42 45 47 41 26 22 16 17 20 14 8 10 11 15 34 46 43
64 66 65 64 65 67 69 71 72 71 68 64 66 70 68 64 60 53 48 49 44 44 41 36 37 41 45 38 37 39 39 39 33 20 15 9 19 26 19 12 15 3 9 11 25 36 41
69 71 68 69 72 74 75 70 66 62 58 55 55 60 68 67 64 58 50 45 42 43 37 32 37 39 30 27 31 27 24 20 10 5 10 23 23 19 14 13 9 9 17 18 18 31 45
71 70 72 74 75 68 64 63 60 57 59 63 57 51 56 60 59 58 51 46 41 41 32 32 35 24 17 22 16 13 15 10 18 21 18 17 17 17 11 4 12 17 18 21 16 28 40
70 73 75 73 64 64 60 54 53 51 47 43 37 34 34 38 48 54 50 47 43 36 28 33 29 12 11 11 11 13 14 20 21 19 17 9 13 19 18 13 14 19 28 20 17 17 28
73 75 72 65 63 55 52 48 40 36 34 33 34 37 33 36 29 46 47 46 42 27 25 23 14 2 6 11 13 11 14 8 14 15 12 14 16 16 15 18 20 29 23 31 32 22 20
74 73 65 62 54 47 44 37 35 33 29 28 29 31 28 33 38 43 46 44 34 24 24 17 3 2 6 6 10 9 5 7 5 13 20 14 10 10 18 20 16 23 17 19 16 22 18
76 67 63 53 46 40 36 28 10 10 13 19 27 22 21 17 32 44 42 39 26 24 22 5 7 9 7 7 3 4 5 5 10 24 23 11 12 16 14 28 20 19 19 9 7 11 19
73 65 55 49 39 30 18 9 12 20 19 21 22 23 19 17 41 35 36 28 27 20 5 13 11 10 11 7 5 8 7 8 23 28 18 17 22 22 26 24 19 9 9 3 7 22 20
68 59 49 41 27 17 6 15 24 26 18 15 22 21 21 25 40 34 32 23 17 11 19 20 13 14 7 9 8 11 10 13 31 27 17 16 21 20 26 26 19 13 11 16 19 22 20
64 51 50 27 13 5 17 21 22 17 19 28 31 38 46 44 38 31 26 17 15 23 26 21 15 12 11 8 13 16 15 24 27 23 23 21 22 21 22 24 21 17 16 19 24 21 18
60 47 39 5 6 12 12 15 21 30 33 37 42 48 45 42 38 32 23 15 27 25 29 20 18 15 14 15 27 24 24 29 28 25 27 25 21 22 27 23 22 25 20 19 17 16 11
55 47 14 10 12 13 14 24 26 33 30 27 37 40 36 33 28 20 21 33 28 32 29 22 18 17 23 33 30 29 25 19 16 21 23 24 23 21 24 21 19 17 18 19 16 16 12
51 36 13 17 10 14 21 20 29 24 31 29 26 32 29 19 20 23 29 35 29 36 28 23 20 25 30 27 27 26 22 25 26 24 23 22 18 14 18 18 16 16 15 13 12 12 12
39 13 21 19 18 21 17 22 24 32 35 33 22 19 20 23 23 34 37 32 32 39 30 27 25 31 29 28 23 21 25 28 31 33 30 27 22 17 15 16 14 14 15 14 13 10 10
20 20 26 23 27 23 22 28 27 23 22 21 19 17 20 23 31 33 33 30 34 36 31 26 27 31 29 25 29 26 28 29 27 25 23 21 20 17 15 14 15 15 15 14 12 13 11
22 28 26 27 31 32 28 26 20 18 21 24 23 19 12 28 28 33 33 31 36 37 29 27 25 28 26 26 24 23 25 21 18 16 14 13 14 14 15 13 15 15 12 12 14 14 13
34 33 29 31 28 26 25 22 19 21 20 20 19 20 20 23 28 30 26 33 43 40 32 30 27 25 23 23 20 17 13 12 14 13 13 12 13 12 11 11 10 10 10 8 8 7 7
32 29 32 29 20 20 22 24 22 22 20 18 18 20 19 21 24 25 29 37 41 37 33 31 29 24 21 19 16 12 9 5 4 8 8 8 7 7 7 6 5 5 6 6 5 5 6
28 25 24 19 17 20 19 21 18 17 18 18 21 22 20 20 22 28 32 33 34 33 30 29 26 24 21 17 12 8 7 6 3 4 3 3 3 5 3 2 1 1 4 5 6 8 9
24 19 17 17 20 17 18 18 15 15 17 19 21 19 19 18 25 29 34 34 31 29 27 25 24 22 20 16 14 11 12 12 11 10 7 4 3 3 3 4 6 8 8 8 9 11 10
19 18 18 17 15 14 13 11 15 18 18 19 20 20 22 24 26 29 30 31 30 29 27 24 21 18 16 15 14 13 10 8 4 3 2 1 2 2 1 3 4 4 5 6 8 10 12
17 14 15 12 12 13 13 12 13 13 16 18 19 23 25 28 30 30 30 30 30 28 26 24 20 19 17 14 13 12 10 8 7 7 6 4 3 1 0 3 5 7 9 10 12 14 16
19 15 9 7 10 11 13 13 9 10 16 19 20 23 25 26 28 28 27 26 25 24 23 20 18 17 16 14 13 11 9 7 5 3 2 2 2 4 5 7 9 12 14 16 19 21 23
Wind_Direction
303 300 298 296 295 295 294 293 293 290 285 275 272 271 272 271 271 272 274 275 278 282 289 292 297 300 304 308 313 312 313 302 298 298 298 297 294 293 290 281 267 260 248 240 234 228 226
305 302 300 299 298 298 297 295 294 290 284 280 276 271 269 268 269 269 271 273 274 278 285 290 300 299 305 306 314 314 315 307 305 306 305 301 296 292 287 274 261 249 238 235 231 227 222
303 301 299 298 296 296 295 297 295 290 286 278 272 270 268 267 265 266 268 270 272 277 283 289 299 302 304 305 312 315 317 313 311 310 306 299 294 291 286 270 253 237 233 230 227 226 220
304 302 301 301 300 299 297 296 295 286 280 275 270 264 263 262 265 264 265 267 269 274 280 288 294 296 299 306 312 314 313 314 313 310 303 293 287 288 275 233 203 218 231 230 226 222 218
309 309 306 302 300 297 295 293 290 287 274 268 264 259 257 258 260 261 262 265 269 272 279 287 293 295 298 305 314 311 312 314 314 309 298 277 280 259 165 148 179 215 232 235 224 217 217
312 310 307 304 301 296 293 289 284 279 273 265 262 261 256 257 257 258 261 261 267 272 277 287 294 300 307 315 319 315 315 314 311 306 279 265 255 187 161 175 160 238 235 256 220 204 208
313 312 310 305 301 296 291 286 282 280 276 269 262 258 258 254 253 254 256 258 262 268 273 287 296 295 315 324 317 319 318 315 309 289 254 230 164 166 190 198 195 153 207 151 156 196 199
316 314 312 307 304 299 297 296 292 287 282 278 271 264 260 255 250 249 248 254 256 262 272 284 292 304 325 325 324 327 332 331 297 236 160 154 157 172 188 178 157 168 158 163 163 182 200
318 315 312 308 307 306 302 297 292 286 287 284 276 262 257 254 250 244 244 244 251 257 267 281 291 329 336 336 350 19 14 45 90 108 128 147 166 168 152 256 173 163 160 146 156 179 193
317 315 314 314 313 310 306 302 299 296 285 274 270 258 249 245 246 236 236 238 244 254 267 279 285 330 356 22 48 45 51 101 91 85 82 147 134 84 139 111 157 151 142 135 135 183 199
318 318 319 318 315 313 309 307 300 296 287 273 260 258 253 242 233 225 228 231 240 247 257 273 315 359 57 58 62 84 84 108 83 70 81 148 109 54 77 101 143 161 160 130 155 159 199
322 325 323 321 319 317 314 310 301 292 284 279 252 255 256 250 227 216 222 225 233 236 259 262 98 77 106 85 68 81 106 56 58 96 103 111 138 99 100 109 147 178 151 132 92 140 165
329 327 326 324 324 323 320 311 319 349 329 294 263 245 229 256 198 204 211 218 218 228 247 222 144 126 102 140 132 132 158 85 114 118 115 127 109 122 107 112 121 179 132 117 68 114 145
332 330 329 331 333 328 307 293 309 337 316 259 230 218 232 237 187 181 197 198 208 242 156 144 148 123 100 95 136 157 150 123 133 120 130 112 105 111 106 104 103 125 121 139 140 136 142
334 332 333 338 335 320 316 355 6 8 316 296 223 228 248 170 160 170 178 189 231 188 135 145 139 115 112 112 135 161 132 125 134 132 135 118 127 114 113 109 106 108 137 125 136 130 126
335 335 336 339 330 341 4 16 27 41 80 94 98 115 126 140 146 160 168 198 161 133 142 136 120 118 128 114 129 132 139 137 123 118 123 121 120 119 120 120 109 123 135 130 142 135 141
336 338 343 351 68 16 25 65 78 76 80 100 108 124 131 142 151 155 180 174 128 138 135 126 112 130 129 125 122 112 112 119 116 111 107 113 110 102 115 102 112 97 115 124 130 144 142
338 340 358 127 88 53 52 87 75 94 95 93 121 128 138 144 147 167 160 125 137 133 132 118 124 131 126 126 123 118 110 111 123 127 120 119 108 105 104 100 104 103 104 98 93 123 134
340 348 136 115 74 80 89 86 83 115 115 110 133 132 136 152 159 172 134 140 131 137 127 121 126 128 128 130 123 117 110 114 108 112 139 125 121 113 112 112 110 107 114 116 114 108 115
351 33 129 106 107 106 114 87 127 121 123 124 131 138 134 133 133 119 136 132 133 141 130 125 126 131 130 130 133 120 114 116 109 105 108 111 118 125 127 129 136 137 129 128 132 140 146
24 115 114 110 121 116 121 113 113 113 109 109 99 117 130 113 117 126 132 130 136 141 133 124 124 129 130 129 128 115 114 116 110 108 104 100 100 107 112 128 126 126 137 148 158 161 176
99 119 133 121 127 119 119 118 109 114 115 103 104 107 133 103 120 126 128 129 143 141 145 133 122 123 130 138 137 120 114 106 93 84 87 93 102 95 108 122 129 130 134 147 154 163 174
125 136 137 129 122 109 121 115 115 111 115 92 83 79 95 106 122 118 124 138 149 147 148 141 134 135 133 129 133 127 117 99 83 76 76 91 108 100 107 106 114 130 141 148 149 158 176
131 131 126 114 102 109 116 116 108 105 94 81 74 75 88 107 117 124 133 142 154 152 153 147 148 150 151 150 149 150 143 119 75 37 71 79 98 106 103 122 137 151 171 170 178 189 213
98 107 117 119 126 127 112 110 93 89 81 75 82 77 81 104 125 128 128 133 151 158 162 165 164 166 173 178 179 194 210 212 240 321 349 41 82 89 96 74 36 241 245 239 242 241 247
115 111 126 129 131 114 107 85 86 79 78 81 79 86 93 112 130 130 127 127 136 150 162 163 167 168 179 192 211 213 218 217 229 247 247 263 215 171 243 268 274 274 276 282 287 280 284
122 133 126 120 107 101 92 78 78 73 82 79 91 105 112 126 126 127 126 123 124 130 137 150 162 170 163 156 156 148 142 141 154 184 207 203 197 186 201 270 269 282 291 292 276 281 285
133 120 122 102 84 72 70 60 60 73 83 90 98 117 119 122 120 118 117 117 116 118 123 129 135 137 140 139 134 130 125 116 105 95 92 81 64 71 18 269 270 285 286 288 285 290 287
135 139 118 109 86 80 59 49 56 90 99 103 114 118 118 118 117 115 115 113 111 113 114 113 116 114 113 112 107 108 105 102 93 69 64 347 311 286 296 290 288 283 285 289 288 288 287